[[{"header":{"parameterUnit":"m.s-1","parameterCategory":1,"la1":30.2991,"la2":30.254,"lo1":-89.0895,"lo2":-89.0444,"dy":0.0017,"dx":0.0017,"nx":28,"ny":28,"refTime":"2023-05-28T21:00:00:Z","depth":0,"parameterNumber":2,"parameterNumberName":"U-component_of_WINDS"},"data":[0,0,0,0,0,0,0,0,0,0,0,0,0,0,0,0,0,0,0,0,0,0,0,0,0,0,0,0,0,0,0,0,0,0,0,0,0,0,0,0,0,0,0,0,0,0,0,0,0,0,0,0,0,0,0,0,0,0,1.5516,1.5518,0,1.5682,1.5684,1.5686,1.5747,1.5746,1.5746,1.5745,1.5914,1.5919,1.5924,0,0,0,0,0,0,0,0,0,0,0,0,0,1.5248,1.5252,1.5516,1.5518,1.552,1.5682,1.5684,1.5687,1.5747,1.5746,1.5746,1.5745,1.5912,1.5918,1.5924,0,0,0,0,0,0,0,0,0,0,0,0,0,1.5384,1.5254,1.5515,1.557,1.5576,1.5682,1.5684,1.5687,1.5747,1.5746,1.5745,1.5745,1.591,1.5918,1.5925,1.5988,0,0,1.5948,1.5951,0,0,0,0,0,0,0,0,1.5376,1.5394,1.5559,1.5566,1.5573,1.5693,1.5652,1.5788,1.5747,1.5682,1.5745,1.5744,1.5841,1.5854,1.5887,1.5996,1.6003,1.5949,1.5953,1.5956,1.5958,0,0,0,0,0,0,0,1.5367,1.5387,1.5582,1.5562,1.557,1.5585,1.5603,1.5678,1.5764,1.5688,1.5692,1.5711,1.5845,1.588,1.5891,1.6006,1.5948,1.5955,1.596,1.5963,1.6175,1.6176,0,0,0,0,0,0,1.5349,1.5379,1.5576,1.5587,1.5471,1.559,1.5611,1.5655,1.5763,1.5779,1.5712,1.5714,1.5867,1.5883,1.5898,1.5979,1.5956,1.5963,1.5968,1.6174,1.6175,1.6176,0,0,0,0,0,0,1.5343,1.5366,1.557,1.5484,1.5511,1.5596,1.5645,1.5659,1.5694,1.5782,1.5797,1.5732,1.5867,1.5887,1.5965,1.5985,1.5967,1.5974,1.6172,1.6174,1.6176,1.6141,0,0,0,0,0,0,1.5335,1.5363,1.5388,1.5484,1.5516,1.5635,1.5647,1.5663,1.5707,1.5711,1.5805,1.582,1.5868,1.5954,1.5973,1.5995,1.5979,1.6171,1.6173,1.6175,1.614,1.6141,1.6141,0,0,0,0,0,1.5325,1.5371,1.5389,1.5413,1.5549,1.5636,1.5654,1.5709,1.5709,1.5735,1.5791,1.5817,1.598,1.5961,1.5983,1.6008,1.617,1.6173,1.6175,1.614,1.6141,1.6141,0,0,0,0,0,0,1.5275,1.5385,1.5406,1.5485,1.5551,1.5646,1.568,1.5708,1.5774,1.5775,1.584,1.5861,1.5934,1.5979,1.5956,1.6075,1.6077,1.6084,1.6043,1.6044,1.6044,1.6032,1.5986,0,0,0,0,0,1.5273,1.5335,1.5428,1.5489,1.5521,1.5594,1.5634,1.5671,1.5742,1.577,1.5832,1.5898,1.5965,1.6007,1.6073,1.6148,1.6169,1.6176,1.6176,1.6176,1.6181,1.6223,1.6228,1.6185,1.6185,1.6185,0,0,1.527,1.5338,1.5373,1.548,1.5535,1.5597,1.5617,1.5682,1.5729,1.5779,1.5857,1.5905,1.5984,1.606,1.6097,1.61,1.6198,1.6179,1.6179,1.6184,1.6226,1.623,1.6234,1.6186,1.6186,1.6186,0,0,1.5296,1.5354,1.5411,1.5466,1.5549,1.5598,1.5612,1.5703,1.5737,1.5816,1.5855,1.5912,1.6025,1.6079,1.6122,1.6169,1.6195,1.6188,1.619,1.6231,1.6234,1.6238,1.6254,1.6259,1.6193,1.6193,1.6193,0,1.5281,1.5377,1.5436,1.5499,1.5545,1.5595,1.5652,1.5703,1.5803,1.5833,1.5836,1.5979,1.6035,1.6125,1.6137,1.617,1.6187,1.6177,1.6229,1.6233,1.6237,1.6253,1.6259,1.6192,1.6192,1.6192,1.6192,0,1.5354,1.542,1.5455,1.5552,1.5602,1.5662,1.573,1.5773,1.5806,1.5855,1.5934,1.6004,1.6085,1.6109,1.6142,1.6204,1.6203,1.6217,1.6219,1.6239,1.6255,1.6261,1.619,1.619,1.6191,1.6191,0,0,1.5352,1.5481,1.5493,1.5537,1.5634,1.5685,1.5747,1.5827,1.5863,1.5931,1.5984,1.6079,1.6092,1.614,1.6179,1.6215,1.6247,1.6224,1.6227,1.6225,1.6319,1.6307,1.6313,1.6265,1.6267,1.6268,1.6312,0,1.5389,1.5503,1.5559,1.5648,1.5709,1.5757,1.5811,1.5876,1.5923,1.5981,1.6033,1.6099,1.6112,1.6141,1.6179,1.6235,1.6266,1.6233,1.6314,1.6317,1.6292,1.6322,1.631,1.6349,1.6319,1.632,1.6321,0,1.5448,1.5517,1.5612,1.5701,1.5729,1.5776,1.5854,1.5909,1.5983,1.6015,1.6069,1.6107,1.6174,1.6173,1.6265,1.6241,1.6278,1.631,1.6313,1.6322,1.6319,1.6331,1.6362,1.6367,1.6331,1.633,1.633,0,1.5436,1.5552,1.5624,1.5661,1.5766,1.5799,1.5844,1.5918,1.5962,1.603,1.6059,1.6133,1.6174,1.623,1.6287,1.6281,1.6374,1.6378,1.6402,1.64,1.6418,1.6416,1.6455,1.6443,1.6443,1.6443,1.6443,0,1.5472,1.5528,1.562,1.5664,1.5728,1.5792,1.5853,1.5902,1.5967,1.6021,1.6068,1.6117,1.619,1.6249,1.6294,1.6363,1.6382,1.6409,1.642,1.6404,1.64,1.6428,1.6427,1.6445,1.6444,1.6444,1.6444,0,1.5469,1.5533,1.5614,1.5708,1.5733,1.5776,1.5856,1.5901,1.595,1.6018,1.6038,1.6116,1.6187,1.625,1.6345,1.6375,1.6446,1.646,1.6421,1.6427,1.6447,1.6444,1.6504,1.6515,1.6496,1.6496,1.6496,0,1.5487,1.5531,1.563,1.567,1.5715,1.5779,1.5825,1.5889,1.5934,1.6022,1.6056,1.6131,1.6194,1.6306,1.6371,1.6443,1.6459,1.6475,1.647,1.6453,1.6458,1.6455,1.6459,1.6475,1.6474,1.6474,1.6474,0,1.5512,1.5542,1.5606,1.5682,1.5735,1.5798,1.5862,1.5892,1.5968,1.6016,1.609,1.614,1.6237,1.631,1.639,1.6436,1.6468,1.6476,1.6485,1.6469,1.6444,1.6457,1.6419,1.6474,1.6474,1.6474,1.6474,1.6474,1.552,1.5561,1.5638,1.5708,1.5763,1.5822,1.5868,1.5924,1.5987,1.6071,1.6105,1.618,1.6253,1.6364,1.641,1.647,1.6475,1.6488,1.6492,1.6494,1.6491,1.6435,1.6484,1.6485,1.6485,1.6485,1.6485,0,1.5547,1.5598,1.5662,1.5751,1.5806,1.5832,1.5904,1.5948,1.6014,1.608,1.6141,1.6226,1.6298,1.6369,1.6444,1.6478,1.6494,1.6496,1.6493,1.6503,1.6482,1.6466,1.6481,1.6481,1.6481,1.6481,1.6481,1.6481,1.5567,1.5639,1.5677,1.5777,1.5828,1.5903,1.5941,1.5996,1.6049,1.6141,1.6202,1.6247,1.6315,1.6396,1.6463,1.6482,1.6507,1.6504,1.6527,1.6505,1.6505,1.6504,1.649,1.6509,1.651,1.6543,1.6544,1.6544]},{"header":{"parameterUnit":"m.s-1","parameterCategory":1,"la1":30.2991,"la2":30.254,"lo1":-89.0895,"lo2":-89.0444,"dy":0.0017,"dx":0.0017,"nx":28,"ny":28,"refTime":"2023-05-28T21:00:00:Z","depth":0,"parameterNumber":3,"parameterNumberName":"V-component_of_WINDS"},"data":[0,0,0,0,0,0,0,0,0,0,0,0,0,0,0,0,0,0,0,0,0,0,0,0,0,0,0,0,0,0,0,0,0,0,0,0,0,0,0,0,0,0,0,0,0,0,0,0,0,0,0,0,0,0,0,0,0,0,3.0387,3.0387,0,3.0313,3.0312,3.0311,3.0207,3.0205,3.0203,3.0202,3.0126,3.0125,3.0125,0,0,0,0,0,0,0,0,0,0,0,0,0,3.0439,3.0439,3.0387,3.0387,3.0386,3.0313,3.0312,3.0311,3.0207,3.0205,3.0203,3.0201,3.0126,3.0125,3.0125,0,0,0,0,0,0,0,0,0,0,0,0,0,3.0396,3.0438,3.0388,3.0325,3.0319,3.0314,3.0312,3.0311,3.0208,3.0205,3.0202,3.02,3.0126,3.0125,3.0125,3.0175,0,0,3.0123,3.0123,0,0,0,0,0,0,0,0,3.0399,3.0394,3.0335,3.0329,3.0322,3.0267,3.0302,3.0265,3.0208,3.025,3.0202,3.0199,3.0175,3.017,3.0162,3.0172,3.0168,3.0123,3.0123,3.0123,3.0122,0,0,0,0,0,0,0,3.0402,3.0397,3.0358,3.0334,3.0327,3.0301,3.0291,3.0295,3.0228,3.0246,3.0238,3.0231,3.0171,3.0163,3.0159,3.0167,3.0123,3.0123,3.0122,3.0122,3.0213,3.0216,0,0,0,0,0,0,3.0414,3.04,3.036,3.0356,3.0355,3.0302,3.0292,3.0287,3.0228,3.0216,3.0233,3.0226,3.0165,3.016,3.0156,3.021,3.0123,3.0122,3.0122,3.021,3.0214,3.0217,0,0,0,0,0,0,3.0415,3.0411,3.0363,3.0376,3.0368,3.0304,3.03,3.0287,3.0279,3.0218,3.0206,3.0237,3.0163,3.0157,3.0171,3.0206,3.0122,3.0121,3.0207,3.0211,3.0215,3.0319,0,0,0,0,0,0,3.0417,3.0413,3.0431,3.0377,3.0367,3.038,3.0302,3.0288,3.0278,3.0269,3.0219,3.0208,3.016,3.0172,3.017,3.0204,3.0121,3.0204,3.0209,3.0214,3.0312,3.0326,3.0338,0,0,0,0,0,3.042,3.0464,3.0433,3.0428,3.0389,3.0382,3.0376,3.032,3.0282,3.0299,3.026,3.021,3.0203,3.0175,3.0172,3.0205,3.0201,3.0207,3.0213,3.0307,3.0324,3.0338,0,0,0,0,0,0,3.0524,3.0455,3.042,3.0448,3.0422,3.0364,3.0385,3.0341,3.0325,3.0316,3.0247,3.0237,3.0259,3.0234,3.0203,3.025,3.0194,3.02,3.0266,3.0282,3.0295,3.03,3.0121,0,0,0,0,0,3.055,3.055,3.049,3.052,3.0509,3.045,3.0444,3.0404,3.0373,3.0362,3.0323,3.0296,3.0287,3.0283,3.0272,3.0308,3.0296,3.033,3.0343,3.0354,3.036,3.0376,3.039,3.0237,3.0237,3.0237,0,0,3.0604,3.0566,3.0571,3.054,3.0515,3.0516,3.0441,3.0445,3.0445,3.0362,3.0373,3.0344,3.0309,3.0334,3.0343,3.0313,3.04,3.0362,3.0371,3.0371,3.0384,3.0399,3.0412,3.0241,3.024,3.024,0,0,3.0702,3.0675,3.0696,3.0673,3.0635,3.0596,3.0601,3.0551,3.0528,3.0538,3.0475,3.0474,3.0461,3.0438,3.0425,3.0516,3.0468,3.0514,3.0582,3.0598,3.061,3.0621,3.0652,3.0664,3.052,3.052,3.052,0,3.0774,3.0773,3.0713,3.0721,3.071,3.0635,3.0656,3.0636,3.0597,3.0591,3.0558,3.054,3.0511,3.0529,3.0551,3.0543,3.0547,3.0519,3.0614,3.0623,3.0632,3.0661,3.0673,3.0526,3.0525,3.0525,3.0524,0,3.0863,3.0864,3.0886,3.085,3.0841,3.0856,3.0797,3.0795,3.0756,3.072,3.073,3.0693,3.0672,3.0674,3.0635,3.0686,3.0669,3.0626,3.0568,3.0654,3.068,3.069,3.0534,3.0532,3.053,3.0529,0,0,3.1024,3.0955,3.0964,3.0947,3.09,3.0899,3.0911,3.0891,3.089,3.0866,3.0873,3.0864,3.0824,3.0809,3.0767,3.0782,3.0855,3.0737,3.0735,3.0759,3.0908,3.094,3.0954,3.0823,3.0825,3.0827,3.0911,0,3.1113,3.1128,3.1075,3.1104,3.1103,3.1032,3.1042,3.1014,3.0981,3.0976,3.0938,3.0933,3.0881,3.0871,3.0883,3.0844,3.0884,3.0837,3.0829,3.0829,3.0839,3.0968,3.1002,3.1083,3.0921,3.0922,3.0924,0,3.1218,3.12,3.1229,3.118,3.1178,3.1188,3.1165,3.1161,3.1128,3.1103,3.1087,3.1038,3.1045,3.0991,3.0999,3.0969,3.0962,3.0943,3.0945,3.0941,3.0881,3.0967,3.1107,3.1119,3.0939,3.0938,3.0937,0,3.1332,3.1314,3.1329,3.1317,3.1261,3.1269,3.1246,3.1211,3.1202,3.1182,3.1176,3.1158,3.1147,3.1134,3.1081,3.1047,3.1096,3.1037,3.1075,3.1076,3.1087,3.1087,3.1228,3.1085,3.1085,3.1085,3.1085,0,3.1436,3.1456,3.1379,3.1388,3.1409,3.1347,3.1369,3.1339,3.1309,3.131,3.1248,3.1251,3.1182,3.1177,3.1136,3.1149,3.1145,3.1125,3.1113,3.113,3.1132,3.1124,3.1117,3.1088,3.1087,3.1087,3.1086,0,3.1566,3.1515,3.1526,3.1473,3.146,3.1477,3.1431,3.1437,3.14,3.1403,3.14,3.1342,3.1333,3.128,3.1259,3.1231,3.1258,3.1236,3.127,3.1262,3.1302,3.1299,3.1442,3.1457,3.1306,3.1307,3.1308,0,3.1635,3.1649,3.1597,3.1594,3.1574,3.1569,3.156,3.15,3.1493,3.1457,3.1467,3.1454,3.1439,3.1428,3.1384,3.1367,3.1344,3.1395,3.1341,3.1356,3.1343,3.1343,3.1343,3.1406,3.1408,3.141,3.1411,0,3.1763,3.1737,3.1726,3.1707,3.1698,3.168,3.1658,3.1659,3.1593,3.1588,3.1578,3.1568,3.1546,3.1533,3.1508,3.1484,3.1437,3.1429,3.1436,3.1453,3.1471,3.1461,3.13,3.1425,3.1424,3.1423,3.1422,3.1422,3.1863,3.1872,3.1837,3.1827,3.1805,3.1786,3.1789,3.1752,3.1743,3.1721,3.1686,3.1681,3.1648,3.161,3.159,3.1585,3.1557,3.1569,3.1571,3.1575,3.1583,3.1473,3.158,3.158,3.1579,3.1579,3.1579,0,3.1987,3.1961,3.1953,3.1924,3.1917,3.1873,3.1847,3.1843,3.184,3.1813,3.18,3.1789,3.1776,3.173,3.1712,3.1717,3.1695,3.1714,3.1713,3.1708,3.1609,3.1604,3.1733,3.1733,3.1733,3.1733,3.1733,3.1733,3.2051,3.2063,3.2034,3.2035,3.2008,3.2003,3.1992,3.1974,3.1952,3.1942,3.1931,3.1902,3.1867,3.1846,3.1832,3.1819,3.1815,3.1842,3.1822,3.173,3.1715,3.1701,3.1696,3.1842,3.1842,3.1921,3.1921,3.1922]}]]